TimeMDT,TemperatureF,Dew PointF,Humidity,Sea Level PressureIn,VisibilityMPH,Wind Direction,Wind SpeedMPH,Gust SpeedMPH,PrecipitationIn,Events,Conditions,WindDirDegrees,DateUTC
12:15 AM,44.8,17.6,34,29.83,5.0,WSW,5.8,-,N/A,,Haze,250,2013-04-17 06:15:00
12:35 AM,43.9,18.3,36,29.83,5.0,WSW,6.9,-,N/A,,Haze,250,2013-04-17 06:35:00
12:55 AM,43.7,18.9,37,29.83,5.0,West,6.9,-,N/A,,Haze,260,2013-04-17 06:55:00
1:15 AM,42.6,19.9,40,29.82,7.0,WSW,6.9,-,N/A,,Scattered Clouds,250,2013-04-17 07:15:00
1:55 AM,37.2,22.1,54,29.82,7.0,West,5.8,-,N/A,,Scattered Clouds,270,2013-04-17 07:55:00
2:15 AM,40.1,21.7,48,29.81,7.0,WSW,6.9,-,N/A,,Clear,250,2013-04-17 08:15:00
2:35 AM,41.5,21.2,44,29.80,10.0,SW,4.6,-,N/A,,Clear,230,2013-04-17 08:35:00
2:55 AM,41.2,21.4,45,29.80,10.0,Calm,Calm,-,N/A,,Scattered Clouds,0,2013-04-17 08:55:00
3:15 AM,36.5,23.9,60,29.80,10.0,Calm,Calm,-,N/A,,Mostly Cloudy,0,2013-04-17 09:15:00
3:35 AM,36.9,24.1,60,29.80,10.0,Calm,Calm,-,N/A,,Overcast,0,2013-04-17 09:35:00
3:55 AM,36.9,25.5,64,29.80,10.0,Calm,Calm,-,N/A,,Overcast,0,2013-04-17 09:55:00
4:15 AM,40.5,24.6,53,29.80,7.0,WSW,5.8,9.2,N/A,,Unknown,240,2013-04-17 10:15:00
4:35 AM,40.8,28.0,60,29.80,10.0,South,12.7,-,N/A,,Overcast,190,2013-04-17 10:35:00
4:55 AM,40.8,29.3,64,29.80,7.0,SW,11.5,-,N/A,,Unknown,220,2013-04-17 10:55:00
5:15 AM,38.7,31.1,74,29.80,7.0,South,12.7,19.6,N/A,,Unknown,190,2013-04-17 11:15:00
5:35 AM,39.2,30.7,72,29.78,10.0,South,8.1,-,N/A,Rain,Light Rain,190,2013-04-17 11:35:00
5:55 AM,38.8,31.1,74,29.76,10.0,SE,5.8,-,N/A,Rain,Light Rain,140,2013-04-17 11:55:00
6:15 AM,38.3,31.6,77,29.75,10.0,SE,10.4,17.3,N/A,Rain,Light Rain,140,2013-04-17 12:15:00
6:35 AM,39.2,30.6,71,29.76,7.0,SSW,19.6,26.5,N/A,,Unknown,200,2013-04-17 12:35:00
6:55 AM,38.3,30.4,73,29.78,7.0,WSW,13.8,25.3,N/A,,Unknown,240,2013-04-17 12:55:00
7:15 AM,34.7,32.9,93,29.80,1.2,West,12.7,20.7,N/A,Snow,Light Snow,260,2013-04-17 13:15:00
7:35 AM,34.7,32.5,92,29.80,10.0,SW,6.9,-,N/A,Snow,Light Snow,220,2013-04-17 13:35:00
8:15 AM,34.7,33.1,94,29.81,10.0,Calm,Calm,-,N/A,,Overcast,0,2013-04-17 14:15:00
8:35 AM,35.6,33.1,91,29.80,10.0,Calm,Calm,-,N/A,,Overcast,0,2013-04-17 14:35:00
8:55 AM,37.4,28.0,69,29.80,10.0,SSW,12.7,18.4,N/A,,Overcast,200,2013-04-17 14:55:00
9:15 AM,37.4,27.7,68,29.79,10.0,South,11.5,-,N/A,,Overcast,190,2013-04-17 15:15:00
9:35 AM,37.6,26.4,64,29.78,10.0,SSW,13.8,27.6,N/A,,Overcast,200,2013-04-17 15:35:00
9:55 AM,36.3,26.8,68,29.78,4.0,SW,8.1,19.6,N/A,Snow,Light Snow,220,2013-04-17 15:55:00
10:15 AM,37.0,28.0,70,29.78,10.0,WSW,11.5,18.4,N/A,,Overcast,250,2013-04-17 16:15:00
10:35 AM,36.3,24.1,61,29.78,7.0,West,16.1,24.2,N/A,Snow,Light Snow,270,2013-04-17 16:35:00
10:55 AM,36.5,22.3,56,29.78,10.0,SW,15.0,20.7,N/A,,Overcast,230,2013-04-17 16:55:00
11:15 AM,36.7,20.1,51,29.78,10.0,SW,12.7,19.6,N/A,,Overcast,220,2013-04-17 17:15:00
11:35 AM,37.0,18.3,47,29.78,10.0,SW,16.1,26.5,N/A,,Overcast,220,2013-04-17 17:35:00
11:55 AM,37.8,19.9,49,29.77,10.0,WSW,16.1,27.6,N/A,,Overcast,250,2013-04-17 17:55:00
12:15 PM,37.9,19.8,48,29.76,7.0,SSW,15.0,19.6,N/A,,Overcast,210,2013-04-17 18:15:00
12:35 PM,38.7,17.8,43,29.76,10.0,SW,18.4,26.5,N/A,,Overcast,220,2013-04-17 18:35:00
12:55 PM,39.4,15.3,38,29.76,10.0,WSW,18.4,29.9,N/A,,Overcast,250,2013-04-17 18:55:00
1:15 PM,37.2,21.6,53,29.76,10.0,WSW,17.3,26.5,N/A,,Overcast,250,2013-04-17 19:15:00
1:35 PM,38.3,22.3,53,29.76,10.0,WSW,16.1,27.6,N/A,,Mostly Cloudy,240,2013-04-17 19:35:00
1:55 PM,37.2,21.9,54,29.77,10.0,SW,21.9,26.5,N/A,,Mostly Cloudy,230,2013-04-17 19:55:00
2:35 PM,37.0,20.3,51,29.77,10.0,WSW,12.7,20.7,N/A,,Overcast,250,2013-04-17 20:35:00
2:55 PM,38.5,18.3,44,29.76,10.0,West,12.7,21.9,N/A,,Overcast,260,2013-04-17 20:55:00
3:15 PM,39.2,16.9,40,29.76,10.0,SW,15.0,25.3,N/A,,Mostly Cloudy,230,2013-04-17 21:15:00
3:35 PM,39.2,13.6,35,29.75,10.0,WSW,18.4,24.2,N/A,,Overcast,250,2013-04-17 21:35:00
3:55 PM,40.5,6.3,24,29.75,10.0,West,15.0,25.3,N/A,,Overcast,260,2013-04-17 21:55:00
4:15 PM,41.2,7.2,25,29.76,10.0,West,17.3,25.3,N/A,,Overcast,270,2013-04-17 22:15:00
4:35 PM,40.5,7.3,26,29.76,10.0,WSW,12.7,20.7,N/A,,Mostly Cloudy,240,2013-04-17 22:35:00
4:55 PM,40.8,3.4,21,29.76,10.0,WSW,18.4,25.3,N/A,,Scattered Clouds,240,2013-04-17 22:55:00
5:15 PM,40.8,6.4,24,29.76,10.0,SW,17.3,24.2,N/A,,Scattered Clouds,230,2013-04-17 23:15:00
5:35 PM,41.2,-7.1,13,29.78,10.0,SW,17.3,25.3,N/A,,Clear,230,2013-04-17 23:35:00
5:55 PM,39.9,-11.2,11,29.78,10.0,WSW,18.4,29.9,N/A,,Clear,250,2013-04-17 23:55:00
6:15 PM,38.5,-9.6,13,29.78,10.0,WSW,18.4,25.3,N/A,,Clear,250,2013-04-18 00:15:00
6:35 PM,37.8,-7.2,15,29.78,10.0,SW,15.0,19.6,N/A,,Scattered Clouds,230,2013-04-18 00:35:00
6:55 PM,38.5,-2.9,17,29.78,10.0,SW,15.0,20.7,N/A,Thunderstorm,Scattered Clouds,220,2013-04-18 00:55:00
7:15 PM,37.0,0.1,21,29.78,10.0,WSW,16.1,24.2,N/A,,Clear,240,2013-04-18 01:15:00
7:35 PM,34.7,3.0,26,29.79,10.0,SW,11.5,20.7,N/A,,Clear,230,2013-04-18 01:35:00
7:55 PM,33.8,4.8,30,29.80,10.0,SW,13.8,-,N/A,,Clear,230,2013-04-18 01:55:00
8:15 PM,32.9,6.8,33,29.81,10.0,SW,10.4,-,N/A,,Clear,230,2013-04-18 02:15:00
8:35 PM,32.4,10.9,41,29.82,10.0,SW,6.9,-,N/A,,Clear,220,2013-04-18 02:35:00
8:55 PM,31.8,12.2,44,29.83,10.0,SW,4.6,-,N/A,,Clear,220,2013-04-18 02:55:00
9:15 PM,31.5,12.2,45,29.84,10.0,Calm,Calm,-,N/A,,Clear,0,2013-04-18 03:15:00
9:35 PM,30.6,13.5,49,29.85,10.0,Calm,Calm,-,N/A,,Clear,0,2013-04-18 03:35:00
9:55 PM,30.2,14.9,53,29.86,10.0,SSW,5.8,-,N/A,,Clear,210,2013-04-18 03:55:00
10:15 PM,29.3,15.6,57,29.87,10.0,SSW,8.1,-,N/A,,Clear,200,2013-04-18 04:15:00
10:35 PM,28.0,15.3,59,29.88,10.0,Calm,Calm,-,N/A,,Clear,0,2013-04-18 04:35:00
10:55 PM,26.6,15.6,63,29.88,10.0,East,4.6,-,N/A,,Clear,100,2013-04-18 04:55:00
11:15 PM,26.6,15.8,64,29.88,10.0,ESE,3.5,-,N/A,,Clear,120,2013-04-18 05:15:00
11:35 PM,26.4,15.8,64,29.89,10.0,Calm,Calm,-,N/A,,Clear,0,2013-04-18 05:35:00
11:55 PM,24.6,16.2,70,29.90,10.0,Calm,Calm,-,N/A,,Clear,0,2013-04-18 05:55:00